MST,Max TemperatureF,Mean TemperatureF,Min TemperatureF,Max Dew PointF,MeanDew PointF,Min DewpointF,Max Humidity, Mean Humidity, Min Humidity, Max Sea Level PressureIn, Mean Sea Level PressureIn, Min Sea Level PressureIn, Max VisibilityMiles, Mean VisibilityMiles, Min VisibilityMiles, Max Wind SpeedMPH, Mean Wind SpeedMPH, Max Gust SpeedMPH,PrecipitationIn, CloudCover, Events, WindDirDegrees
2012-11-1,42,40,38,40,38,33,100,93,85,30.07,29.96,29.86,10,5,1,21,13,25,0.00,8,,94
2012-11-2,55,43,30,38,31,26,89,70,51,30.15,30.04,29.88,10,10,8,17,8,20,0.00,5,,6
2012-11-3,53,40,27,35,32,26,100,77,54,30.25,30.20,30.15,10,10,10,12,6,14,0.00,2,,101
2012-11-4,48,38,27,42,33,26,100,90,80,30.25,30.15,30.06,10,9,5,10,4,13,0.05,6,Rain,53
2012-11-5,56,48,39,44,38,36,93,74,54,30.26,30.11,29.92,10,10,5,25,6,31,T,6,,269
2012-11-6,59,43,27,37,27,22,82,55,28,30.20,30.15,30.07,10,10,10,26,13,33,0.00,1,,304
2012-11-7,74,50,25,35,29,22,82,54,25,30.14,29.87,29.70,10,10,10,18,6,23,0.00,0,,176
2012-11-8,50,41,32,35,32,28,85,68,50,30.06,29.97,29.74,10,10,10,30,14,38,0.00,2,,24
2012-11-9,37,35,32,36,34,32,100,91,82,29.98,29.86,29.68,10,4,0,20,12,23,0.01,8,Fog,94
2012-11-10,37,27,16,36,24,8,100,87,73,29.98,29.73,29.59,10,4,0,35,20,43,0.07,8,Fog-Snow,327
2012-11-11,23,17,11,12,8,2,74,67,59,30.21,30.12,30.03,10,10,10,32,17,40,0.00,1,,294
2012-11-12,39,24,9,24,14,5,84,64,44,30.31,30.27,30.21,10,10,10,14,6,16,0.00,0,,274
2012-11-13,45,30,14,31,23,13,92,75,57,30.28,30.26,30.23,10,10,10,9,4,10,0.00,3,,260
2012-11-14,46,34,22,31,27,20,96,75,53,30.25,30.17,30.10,10,10,10,10,3,12,0.00,1,,266
2012-11-15,45,35,25,30,27,23,92,75,57,30.46,30.39,30.23,10,10,10,13,7,15,0.00,0,,77
2012-11-16,64,47,29,32,29,26,85,56,27,30.32,30.08,29.95,10,10,10,21,7,25,0.00,0,,180
2012-11-17,58,42,26,34,31,24,92,66,39,30.03,29.98,29.93,10,10,9,16,6,21,0.00,1,,287
2012-11-18,71,47,23,37,30,21,96,61,26,29.99,29.88,29.76,10,10,10,18,6,23,0.00,0,,244
2012-11-19,59,44,29,33,26,23,79,52,25,30.19,30.12,29.93,10,10,10,16,5,22,0.00,0,,296
2012-11-20,68,49,29,34,29,25,85,57,28,30.10,29.99,29.91,10,10,10,25,7,32,0.00,0,,246
2012-11-21,72,52,31,33,28,24,85,53,20,29.89,29.73,29.62,10,10,10,30,10,38,0.00,0,,260
2012-11-22,51,34,17,42,25,10,100,66,31,30.57,30.14,29.73,10,10,10,41,20,51,0.02,2,,308
2012-11-23,37,23,8,17,12,6,84,64,44,30.64,30.48,30.16,10,10,10,18,7,22,0.00,0,,283
2012-11-24,60,40,20,32,23,16,81,52,23,30.11,29.97,29.83,10,10,10,22,6,25,0.00,2,,319
2012-11-25,39,32,25,30,25,18,85,70,54,30.31,30.11,29.99,10,10,7,15,6,18,T,8,Snow,19
2012-11-26,35,26,17,24,17,12,91,76,61,30.51,30.39,30.23,10,10,10,15,6,21,0.00,4,,181
2012-11-27,44,29,14,26,19,14,100,67,33,30.31,30.23,30.17,10,10,10,13,6,16,0.00,0,,268
2012-11-28,45,29,12,25,18,10,92,67,41,30.28,30.13,30.01,10,10,10,12,4,15,0.00,0,,272
2012-11-29,38,26,13,25,18,10,92,76,59,30.12,30.02,29.94,10,10,9,16,5,18,0.00,1,,35
2012-11-30,64,39,14,33,24,12,96,63,30,30.11,29.88,29.67,10,10,7,18,7,25,0.00,0,,169